Waarnemingen

Advertentie
Mijn weer
Salon, Frankrijk (7648): temperatuur & dauwpunt: 18.02.2018 22:00:00 - 24.02.2018 22:00:00 (CET)Salon, Frankrijk (7648): temperatuur 5cm: 18.02.2018 22:00:00 - 24.02.2018 22:00:00 (CET)Salon, Frankrijk (7648): windsnelheid & windstoten: 18.02.2018 22:00:00 - 24.02.2018 22:00:00 (CET)Salon, Frankrijk (7648): windrichting: 18.02.2018 22:00:00 - 24.02.2018 22:00:00 (CET)Salon, Frankrijk (7648): luchtdruk: 18.02.2018 22:00:00 - 24.02.2018 22:00:00 (CET)Salon, Frankrijk (7648): zicht: 18.02.2018 22:00:00 - 24.02.2018 22:00:00 (CET)Salon, Frankrijk (7648): neerslag: 18.02.2018 22:00:00 - 24.02.2018 22:00:00 (CET)
Datum & Tijd tt [°C] td [°C] tt 5cm [°C] ff [km/u] ff [kn] fx [km/u] fx [kn] dd ppp [hPa] vv [km] rr [mm]
24.02.2018 22:00:00 5,2 -0,4 4,3 20 11 29 15 NNW 1008,5 7 0,0
24.02.2018 21:00:00 5,4 0,8 4,0 13 7 24 13 NNW 1008,6 6 0,0
24.02.2018 20:00:00 4,4 2,9 3,8 4 2 7 4 ZW 1008,7 3,1 0,0
24.02.2018 19:00:00 4,5 2,5 3,7 4 2 6 3 Z 1008,8 3,3 0,2
24.02.2018 18:00:00 4,5 1,9 3,7 2 1 8 5 Z 1008,5 4,4 0,0
24.02.2018 17:00:00 4,4 1,6 3,5 6 4 17 9 NW 1008,4 4,6 0,0
24.02.2018 16:00:00 4,5 2,7 4,2 6 4 14 7 NW 1008,1 4,5 0,2
24.02.2018 15:00:00 4,8 3,0 3,9 10 5 21 11 NNW 1008,3 4,0 1,6
24.02.2018 14:00:00 4,3 2,5 4,1 12 6 20 11 NNW 1008,7 3,3 0,2
24.02.2018 13:00:00 4,5 2,7 4,4 13 7 17 9 NNW 1008,6 3,3 0,0
24.02.2018 12:00:00 4,3 2,2 3,5 5 3 12 6 NW 1008,7 4,0 0,2
24.02.2018 11:00:00 3,8 0,5 3,5 4 2 10 6 N 1008,6 4,5 0,2
24.02.2018 10:00:00 4,4 -1,6 4,4 8 4 11 6 N 1008,2 8 0,0
24.02.2018 09:00:00 3,7 -1,7 2,7 5 3 14 8 NNO 1007,9 7 0,0
24.02.2018 08:00:00 2,9 -2,0 2,1 11 6 26 14 N 1007,7 8 0,0
24.02.2018 07:00:00 3,0 -2,1 2,3 13 7 23 12 N 1007,3 8 0,0
24.02.2018 06:00:00 3,1 -2,6 2,6 14 8 23 13 NNW 1006,4 9 0,0
24.02.2018 05:00:00 3,0 -3,2 2,6 9 5 19 10 N 1006,3 9 0,0
24.02.2018 04:00:00 2,9 -3,2 2,5 11 6 21 11 NNW 1006,3 9 0,0
24.02.2018 03:00:00 2,8 -3,1 2,1 10 6 22 12 NNW 1006,6 9 0,0
24.02.2018 02:00:00 2,8 -3,3 2,1 11 6 23 12 NNW 1006,7 9 0,0
24.02.2018 01:00:00 2,9 -3,7 2,4 10 6 16 9 NNW 1006,6 9 0,0
24.02.2018 00:00:00 3,2 -3,8 2,9 12 6 22 12 NNW 1006,5 9 0,0
23.02.2018 23:00:00 3,3 -4,0 2,9 16 9 31 17 NNW 1006,6 10 0,0
23.02.2018 22:00:00 3,5 -4,0 3,1 18 10 30 16 NNW 1006,6 10 0,0
23.02.2018 21:00:00 3,9 -4,1 3,4 16 9 26 14 N 1006,7 10 0,0
23.02.2018 20:00:00 4,7 -4,1 4,4 18 10 32 18 NNW 1006,4 11 0,0
23.02.2018 19:00:00 5,6 -4,0 5,3 13 7 26 14 NW 1006,2 12 0,0
23.02.2018 18:00:00 6,7 -3,8 6,5 22 12 34 18 NW 1005,3 12 0,0
23.02.2018 17:00:00 8,4 -3,5 10,6 20 11 37 20 NNW 1004,9 12 0,0
23.02.2018 16:00:00 8,9 -3,7 9,6 18 10 31 17 NW 1004,7 12 0,0
23.02.2018 15:00:00 8,5 -3,4 10,4 19 11 34 19 NNW 1004,9 8 0,0
23.02.2018 14:00:00 8,8 -3,1 10,0 20 11 37 20 NNW 1005,1 12 0,0
23.02.2018 13:00:00 6,9 -3,4 9,2 23 13 35 19 NNW 1005,7 11 0,0
23.02.2018 12:00:00 6,2 -3,2 6,5 21 12 35 19 N 1006,4 8 0,0
23.02.2018 11:00:00 4,2 -3,6 3,8 23 12 29 16 NNW 1006,5 9 0,0
23.02.2018 10:00:00 2,3 -3,8 2,6 16 9 24 13 NNW 1006,4 8 0,0
23.02.2018 09:00:00 1,4 -4,3 -1,5 9 5 14 7 N 1006,3 8 0,0
23.02.2018 08:00:00 -1,0 -4,7 -2,7 0 0 20 11 N 1005,8 6 0,0
23.02.2018 07:00:00 -0,1 -4,5 -1,1 7 4 29 16 N 1005,5 7 0,0
23.02.2018 06:00:00 0,2 -4,4 -1,0 18 10 29 16 N 1005,4 8 0,0
23.02.2018 05:00:00 -0,2 -4,6 -1,1 16 9 27 14 NNW 1005,3 8 0,0
23.02.2018 04:00:00 0,3 -4,5 -1,4 16 9 26 14 N 1005,7 8 0,0
23.02.2018 03:00:00 0,3 -4,7 -0,9 10 5 18 10 N 1006,2 8 0,0
23.02.2018 02:00:00 0,7 -4,5 0,0 15 8 26 14 NNW 1006,7 8 0,0
23.02.2018 01:00:00 1,5 -4,4 0,9 16 8 23 13 N 1006,8 9 0,0
23.02.2018 00:00:00 2,0 -4,3 1,5 15 8 26 14 NNW 1006,9 9 0,0
22.02.2018 23:00:00 1,9 -4,4 1,2 13 7 30 16 N 1006,9 9 0,0
22.02.2018 22:00:00 1,8 -4,3 0,8 13 7 27 15 NNW 1006,9 9 0,0
22.02.2018 21:00:00 2,2 -4,3 1,4 6 3 45 24 NNW 1006,7 9 0,0
22.02.2018 20:00:00 2,9 -4,1 2,5 31 17 49 26 NNW 1006,2 9 0,0
22.02.2018 19:00:00 4,2 -3,6 3,9 27 15 42 23 NNW 1006,0 9 0,0
22.02.2018 18:00:00 5,1 -3,2 5,0 24 13 37 20 NNW 1005,5 10 0,0
22.02.2018 17:00:00 5,9 -3,0 6,2 24 13 36 19 NNW 1005,4 10 0,0
22.02.2018 16:00:00 7,0 -2,7 7,7 22 12 35 19 NNW 1005,2 11 0,0
22.02.2018 15:00:00 7,6 -2,4 7,9 19 10 29 16 NNW 1005,2 11 0,0
22.02.2018 14:00:00 7,2 -3,1 8,3 23 12 30 16 N 1005,3 12 0,0
22.02.2018 13:00:00 7,7 -2,9 9,5 22 12 29 15 N 1005,3 12 0,0
22.02.2018 12:00:00 7,2 -3,1 9,3 16 9 27 14 NNW 1005,7 11 0,0
22.02.2018 11:00:00 5,5 -3,3 5,1 20 11 29 15 N 1005,8 9 0,0
22.02.2018 10:00:00 3,6 -3,5 4,0 21 11 32 17 NNW 1005,8 8 0,0
22.02.2018 09:00:00 2,2 -3,7 0,9 18 10 26 14 NNW 1005,7 8 0,0
22.02.2018 08:00:00 1,2 -3,7 -1,1 10 6 23 13 N 1005,6 7 0,0
22.02.2018 07:00:00 1,1 -3,8 -0,3 11 6 25 14 N 1005,5 8 0,0
22.02.2018 06:00:00 1,4 -4,1 0,0 14 7 30 16 N 1005,4 9 0,0
22.02.2018 05:00:00 1,5 -4,4 -0,5 16 8 24 13 N 1005,6 13 0,0
22.02.2018 04:00:00 1,8 -4,5 0,6 8 4 28 15 NNO 1006,2 15 0,0
22.02.2018 03:00:00 2,3 -4,5 1,4 16 8 36 20 NNW 1006,4 16 0,0
22.02.2018 02:00:00 2,5 -4,5 1,8 21 11 43 23 NNW 1006,7 15 0,0
22.02.2018 01:00:00 2,9 -4,3 2,1 25 13 47 26 NNW 1007,0 15 0,0
22.02.2018 00:00:00 3,2 -4,3 2,4 27 14 44 24 NNW 1007,3 16 0,0
21.02.2018 23:00:00 3,3 -4,2 2,7 24 13 45 24 NNW 1007,3 16 0,0
21.02.2018 22:00:00 3,6 -4,1 3,0 28 15 54 29 NNW 1007,1 16 0,0
21.02.2018 21:00:00 3,7 -4,3 3,2 35 19 63 34 NNW 1006,9 17 0,0
21.02.2018 20:00:00 3,9 -4,1 3,4 38 21 61 33 NNW 1006,9 16 0,0
21.02.2018 19:00:00 4,3 -4,0 3,8 36 20 58 32 NNW 1007,0 15 0,0
21.02.2018 18:00:00 5,1 -4,2 4,8 42 23 69 37 NNW 1006,9 16 0,0
21.02.2018 17:00:00 6,4 -4,7 7,7 41 22 65 35 NNW 1007,0 19 0,0
21.02.2018 16:00:00 7,5 -4,3 9,4 39 21 59 32 NNW 1007,5 16 0,0
21.02.2018 15:00:00 8,4 -4,1 10,6 34 18 55 30 NNW 1008,1 14 0,0
21.02.2018 14:00:00 8,0 -3,8 10,3 32 17 52 28 NNW 1008,5 13 0,0
21.02.2018 13:00:00 7,5 -4,0 9,0 31 17 49 26 NNW 1009,0 12 0,0
21.02.2018 12:00:00 7,0 -3,3 4,7 25 14 48 26 NNW 1009,4 12 0,0
21.02.2018 11:00:00 4,0 -3,8 3,7 16 8 29 16 NNW 1009,5 16 0,0
21.02.2018 10:00:00 3,2 -3,2 2,6 19 11 39 21 NNW 1008,9 14 0,0
21.02.2018 09:00:00 2,4 -3,7 1,9 27 14 44 24 N 1007,6 14 0,0
21.02.2018 08:00:00 2,2 -3,9 1,3 33 18 57 31 N 1007,2 14 0,0
21.02.2018 07:00:00 1,7 -4,2 1,2 36 20 57 31 NNW 1006,4 14 0,0
21.02.2018 06:00:00 1,7 -4,2 1,2 32 17 56 31 NNW 1006,4 14 0,0
21.02.2018 05:00:00 2,4 -4,1 1,9 40 22 58 31 NNW 1006,6 16 0,0
21.02.2018 04:00:00 3,1 -3,7 2,6 35 19 52 28 NNW 1006,9 17 0,0
21.02.2018 03:00:00 3,5 -3,5 3,0 35 19 58 31 NNW 1007,7 17 0,0
21.02.2018 02:00:00 4,1 -3,7 3,7 40 22 61 33 NNW 1008,3 19 0,0
21.02.2018 01:00:00 5,0 -3,8 4,5 39 21 58 31 NNW 1008,4 20 0,0
21.02.2018 00:00:00 5,5 -3,9 4,6 31 17 45 24 NNW 1008,7 34 0,0
20.02.2018 23:00:00 6,2 -4,0 5,4 38 21 65 35 NNW 1008,6 42 0,0
20.02.2018 22:00:00 6,7 -5,0 6,0 36 19 67 36 NNW 1008,6 49 0,0
20.02.2018 21:00:00 7,1 -6,6 6,4 36 20 62 33 NNW 1008,5 60 0,0
20.02.2018 20:00:00 7,6 -8,1 6,9 37 20 80 43 NNW 1008,2 60 0,0
20.02.2018 19:00:00 8,2 -7,5 7,7 46 25 82 45 NNW 1007,4 60 0,0
20.02.2018 18:00:00 8,8 -5,1 8,3 41 22 77 41 NNW 1007,1 28 0,0
20.02.2018 17:00:00 9,3 -4,3 9,4 43 23 78 42 NNW 1006,7 56 0,0
20.02.2018 16:00:00 11,2 -5,3 11,5 44 24 73 39 NNW 1006,9 52 0,0
20.02.2018 15:00:00 10,0 -5,2 11,2 46 25 72 39 NW 1007,2 52 0,0
20.02.2018 14:00:00 10,6 -4,6 9,9 46 25 71 38 NW 1007,4 20 0,0
20.02.2018 13:00:00 9,1 -3,8 9,4 40 21 72 39 NNW 1008,0 46 0,0
20.02.2018 12:00:00 8,3 -3,6 8,2 42 23 67 36 NNW 1008,4 52 0,0
20.02.2018 11:00:00 7,4 -3,5 8,0 41 22 65 35 NNW 1008,6 60 0,0
20.02.2018 10:00:00 6,9 -3,1 7,2 33 18 56 30 NNW 1008,9 23 0,0
20.02.2018 09:00:00 6,3 -2,6 5,2 26 14 42 23 NW 1009,5 40 0,0
20.02.2018 08:00:00 5,1 -2,7 4,1 20 11 36 19 NW 1010,1 38 0,0
20.02.2018 07:00:00 4,9 -3,2 4,3 19 10 39 21 NNW 1010,0 41 0,0
20.02.2018 06:00:00 5,1 -2,7 4,3 24 13 35 19 NNW 1010,2 40 0,0
20.02.2018 05:00:00 4,7 -3,1 3,7 25 13 41 22 NNW 1010,5 40 0,0
20.02.2018 04:00:00 4,4 -4,1 3,8 28 15 49 27 N 1011,0 48 0,0
20.02.2018 03:00:00 4,7 -4,1 4,0 28 15 42 23 NNW 1011,3 46 0,0
20.02.2018 02:00:00 5,1 -4,0 4,4 15 8 30 16 NNW 1011,9 47 0,0
20.02.2018 01:00:00 5,3 -2,8 4,6 22 12 41 22 NNW 1012,2 37 0,0
20.02.2018 00:00:00 5,8 -3,3 4,8 15 8 29 15 NW 1012,6 41 0,0
19.02.2018 23:00:00 5,9 -4,0 4,8 9 5 26 14 WNW 1012,7 48 0,0
19.02.2018 22:00:00 6,5 -4,6 5,5 10 5 37 20 WNW 1012,9 55 0,0
19.02.2018 21:00:00 7,2 -6,2 6,2 19 10 36 19 NW 1013,2 60 0,0
19.02.2018 20:00:00 7,8 -6,7 6,6 15 8 32 17 NW 1013,5 60 0,0
19.02.2018 19:00:00 8,1 -6,1 6,8 8 4 22 12 NW 1013,8 60 0,0
19.02.2018 18:00:00 9,1 -3,2 8,4 10 5 21 11 WNW 1014,0 55 0,0
19.02.2018 17:00:00 10,0 0,6 10,3 14 7 25 13 NNW 1014,3 38 0,0
19.02.2018 16:00:00 12,1 1,7 13,6 13 7 21 12 NW 1014,3 20 0,0
19.02.2018 15:00:00 12,9 3,0 14,5 6 4 17 9 WZW 1014,6 20 0,0
19.02.2018 14:00:00 12,3 3,0 14,3 9 5 16 9 NW 1015,3 20 0,0
19.02.2018 13:00:00 11,1 2,4 14,7 13 7 23 13 NNW 1016,3 20 0,0
19.02.2018 12:00:00 9,9 1,8 13,9 10 5 18 10 NW 1016,9 32 0,0
19.02.2018 11:00:00 8,6 1,7 8,6 4 2 10 6 N 1017,3 33 0,0
19.02.2018 10:00:00 5,5 1,0 4,7 4 2 11 6 NO 1017,8 28 0,0
19.02.2018 09:00:00 4,3 0,6 2,4 4 2 8 4 NNO 1017,9 31 0,0
19.02.2018 08:00:00 3,7 0,2 2,6 0 0 5 3 N 1017,8 30 0,0
19.02.2018 07:00:00 3,4 0,1 2,3 0 0 6 3 N 1017,6 36 0,0
19.02.2018 06:00:00 2,6 0,0 1,0 3 2 5 3 NNO 1017,4 29 0,0
19.02.2018 05:00:00 2,1 0,0 -0,1 3 2 5 3 NNO 1017,5 28 0,0
19.02.2018 04:00:00 0,7 -1,2 -0,5 0 0 4 2 N 1017,5 19 0,0
19.02.2018 03:00:00 0,9 -0,6 -2,7 0 0 4 2 N 1017,7 19 0,0
19.02.2018 02:00:00 0,0 -2,2 -2,7 0 0 5 3 N 1018,0 17 0,0
19.02.2018 01:00:00 1,9 -1,0 -0,9 0 0 13 7 N 1018,1 19 0,0
19.02.2018 00:00:00 3,3 -0,5 -0,3 6 4 15 8 NNO 1018,2 43 0,0
18.02.2018 23:00:00 4,1 -0,5 2,5 8 5 24 13 N 1017,9 53 0,0
18.02.2018 22:00:00 5,0 -0,4 3,8 13 7 35 19 N 1017,7 60 0,0

tt = temperatuur
td = dauwpunt
tt 5cm = temperatuur 5cm
ff = windsnelheid
fx = windstoten
dd = windrichting
ppp = luchtdruk
vv = zicht
rr = neerslag

Weerstations in de omgeving